GFSSW_925_rhum_333.txt.gz
RH
42 40 39 36 36 33 29 26 24 21 15 9 8 8 11 10 12 24 20 9 39 54 64 74 75 72 73 62 60 48 50 41 45 45 47 38 40 37 39 46 55 55 55 66 90
45 43 41 39 37 35 31 27 26 23 16 10 8 12 16 12 20 24 5 10 38 54 64 62 62 59 60 58 50 46 46 38 31 35 41 38 36 39 43 46 62 69 73 81 85
45 44 42 40 38 35 32 29 24 23 18 10 8 19 18 15 22 6 5 16 38 51 60 60 57 49 51 47 40 44 39 36 32 31 35 37 39 35 42 45 50 54 70 72 74
45 43 42 39 36 34 31 29 25 22 18 10 9 22 16 25 10 28 11 22 37 56 57 52 52 44 42 40 35 41 34 31 35 36 36 38 36 37 40 39 38 47 60 68 67
44 42 39 36 33 31 29 26 25 21 18 10 12 22 17 12 6 7 16 37 50 57 46 44 46 39 37 36 36 39 32 30 35 34 34 35 38 37 40 43 42 57 63 64 64
41 38 33 30 27 26 24 23 23 18 16 10 18 21 28 5 15 29 22 66 62 52 45 35 31 32 34 38 37 34 31 36 35 35 35 37 40 36 36 51 54 59 60 61 64
38 31 26 22 20 19 20 21 19 17 12 10 22 26 20 4 20 61 60 66 64 45 38 39 34 34 33 37 36 33 39 38 36 37 38 33 41 37 41 48 53 57 58 59 62
37 29 24 19 15 14 18 19 16 13 11 13 23 29 9 8 21 68 58 60 53 46 41 34 34 34 38 37 35 32 35 44 39 35 37 33 44 36 42 47 49 51 58 60 62
32 28 22 20 14 15 17 19 22 20 21 25 36 24 6 12 14 49 52 45 45 42 39 34 34 35 38 36 36 45 47 45 45 40 37 38 43 35 37 40 44 48 52 55 62
29 24 18 16 15 12 22 36 34 35 38 45 51 23 10 9 14 45 48 32 39 33 33 33 36 38 38 36 46 48 52 52 46 41 40 40 41 38 37 38 38 41 44 52 57
28 21 16 14 14 16 38 43 28 30 48 16 13 12 17 17 15 21 34 28 31 28 32 37 36 36 37 40 42 46 41 39 41 50 49 44 44 41 39 37 37 44 48 54 56
27 21 16 14 12 25 31 23 24 24 21 21 27 23 20 18 14 14 25 28 27 24 36 39 38 37 35 34 34 44 42 50 58 55 53 50 46 40 41 39 34 43 59 60 58
27 22 16 14 26 29 27 23 24 25 24 21 24 22 19 17 13 12 21 23 27 31 33 30 31 34 36 38 38 40 43 49 53 53 50 59 50 43 39 39 38 40 42 48 57
26 24 20 11 32 28 27 23 24 24 21 15 20 18 21 17 11 13 15 14 20 28 31 30 26 34 38 38 36 46 42 45 58 56 63 50 48 41 36 40 41 40 40 39 55
30 31 25 19 24 32 21 23 22 23 16 16 18 17 20 12 9 12 8 7 14 25 25 25 26 32 35 34 35 44 43 44 52 55 57 54 53 34 41 44 40 40 38 38 42
33 35 29 36 34 20 22 22 23 24 26 18 16 19 19 13 7 9 8 8 13 21 20 22 31 31 35 44 39 48 50 52 57 58 64 53 50 36 37 35 36 36 38 37 42
34 26 26 30 25 24 22 22 26 25 18 15 14 16 16 13 9 9 9 10 13 17 20 18 36 43 40 50 46 44 43 54 55 61 57 56 59 38 31 32 29 32 36 39 46
32 27 35 33 28 26 25 23 30 23 16 13 13 14 15 11 11 9 11 11 11 10 15 19 29 41 38 32 37 46 43 40 56 57 47 57 49 32 33 32 28 27 30 37 44
31 34 36 38 34 30 23 23 25 22 16 16 14 13 14 10 10 10 10 9 8 9 10 16 18 36 41 43 37 51 48 48 58 58 54 48 41 32 30 32 32 28 34 39 42
35 40 35 35 29 22 24 26 24 22 17 14 17 15 15 12 10 10 11 10 9 10 9 12 16 34 46 38 44 40 41 44 45 56 58 43 45 36 31 32 34 32 35 40 42
38 30 33 35 24 19 20 19 19 16 17 17 15 16 15 14 12 12 10 20 22 9 10 13 13 46 46 41 35 50 44 45 41 42 47 48 31 32 34 32 33 30 33 37 41
47 32 30 28 25 34 21 23 26 20 20 19 17 16 14 16 15 15 12 20 26 18 10 10 11 22 31 34 33 37 37 36 36 51 55 53 36 27 33 30 28 28 32 34 38
52 49 32 25 25 26 26 22 19 19 22 22 22 26 27 26 21 22 24 25 24 25 13 11 14 16 16 32 38 37 39 34 47 47 56 42 30 29 30 31 31 30 35 41 40
44 33 31 33 37 26 25 23 19 18 22 23 25 26 25 27 25 28 22 21 22 28 42 29 10 10 13 14 24 36 38 38 35 44 36 37 27 27 27 28 30 32 36 38 42
51 48 54 35 34 28 25 24 22 22 22 23 24 29 29 26 26 27 25 22 26 31 28 15 13 15 13 14 20 16 20 35 35 27 34 22 34 23 25 23 25 27 33 39 40
51 51 52 47 46 32 33 28 24 26 26 24 25 27 26 27 28 28 25 27 29 22 27 22 18 19 15 11 18 27 23 26 31 22 33 30 32 24 24 28 29 28 34 38 39
77 72 55 56 42 32 35 35 32 30 31 29 26 27 27 30 30 26 26 24 23 26 24 27 20 21 16 27 19 18 20 22 28 28 28 35 24 25 28 30 26 26 30 34 36

GFSSW_925_rhum_336.txt.gz
RH
44 43 42 41 39 34 32 28 27 24 19 12 8 7 11 11 10 29 13 10 32 50 69 52 51 51 53 42 41 34 27 29 29 28 36 30 33 29 28 32 36 34 34 45 58
44 43 41 39 38 34 33 30 26 25 20 14 8 9 16 14 36 12 10 9 30 57 50 45 44 46 40 38 34 31 24 26 23 23 28 29 30 32 33 34 40 46 48 54 56
43 41 39 38 36 33 32 29 26 23 20 14 8 11 18 14 17 7 9 9 38 47 42 38 36 37 35 31 28 28 26 22 22 22 23 27 30 28 30 34 31 41 45 46 47
41 38 36 33 31 29 28 26 25 22 21 14 9 17 16 43 13 31 9 15 43 45 40 42 36 38 30 32 25 29 24 23 23 25 26 28 27 29 31 27 26 33 38 42 41
37 32 29 26 24 22 23 22 22 21 18 15 10 20 23 12 6 36 23 38 54 41 35 37 36 32 28 27 28 29 25 25 24 24 25 27 28 27 31 26 28 34 39 39 38
36 27 22 19 16 16 16 19 20 18 17 14 10 20 24 6 19 44 58 64 39 35 32 33 25 25 27 28 28 25 25 25 25 25 26 28 28 24 30 28 32 36 38 37 39
31 26 24 18 13 12 15 17 18 17 15 11 14 28 12 5 20 42 49 46 36 33 29 31 30 28 24 27 26 24 30 28 27 27 30 26 33 27 26 28 33 34 36 37 40
31 25 19 13 11 9 13 16 16 14 13 10 21 39 6 10 38 42 41 39 40 34 32 30 27 25 26 24 26 28 27 35 31 29 29 28 33 28 26 31 33 33 36 39 42
31 26 19 13 11 9 12 23 28 21 16 21 35 19 4 11 23 36 35 33 39 35 32 29 26 26 27 27 28 30 35 33 35 29 32 30 32 27 26 29 31 33 37 38 43
30 24 17 12 12 8 17 35 34 41 51 53 35 15 7 5 7 32 33 29 28 27 26 28 24 31 26 38 40 38 37 42 36 31 31 32 32 28 27 27 29 30 33 37 39
25 22 17 13 13 11 37 44 29 28 26 11 10 8 7 11 15 25 32 27 25 25 22 24 28 31 31 25 26 29 36 30 31 38 36 36 34 36 27 27 28 29 30 34 37
23 24 19 14 11 23 38 20 18 19 14 12 14 14 12 11 8 15 26 21 24 21 18 26 26 24 24 28 25 26 31 36 46 50 40 46 41 31 31 29 25 26 31 40 36
25 34 23 14 20 29 24 17 22 20 15 14 13 12 11 11 7 16 17 17 19 19 20 21 21 22 24 25 27 25 29 30 34 41 35 37 44 35 27 29 29 24 27 40 36
28 41 29 14 35 27 18 22 23 22 14 12 13 12 13 8 8 8 17 16 18 18 18 18 22 24 24 24 26 29 28 30 40 42 49 35 46 28 26 29 30 27 28 29 36
29 44 34 19 42 18 20 24 21 19 16 10 13 14 11 8 6 9 12 15 18 19 19 20 21 24 23 22 23 30 28 30 34 39 38 37 41 27 24 28 28 28 26 25 29
30 41 31 41 46 24 27 23 20 18 17 14 12 15 15 9 6 8 13 8 10 16 18 16 17 18 20 26 26 30 32 36 36 36 46 33 34 26 26 25 24 22 26 26 25
32 29 30 40 18 29 26 17 17 16 13 13 12 13 12 9 6 7 10 12 14 19 21 17 19 24 25 32 32 30 26 32 38 48 43 31 35 28 23 24 21 22 24 24 26
35 32 40 37 35 32 21 15 20 14 12 10 9 11 12 8 6 7 7 10 9 11 12 18 23 25 24 23 26 27 24 31 38 43 30 32 32 24 21 22 21 18 19 22 26
32 40 38 34 34 34 17 14 13 16 12 12 10 11 12 9 7 7 7 6 7 8 11 12 14 17 21 21 20 29 30 25 24 23 32 26 24 20 20 22 22 19 18 23 26
42 29 26 36 32 20 15 12 16 14 13 11 13 10 12 10 9 8 7 6 5 6 6 8 10 13 20 26 28 24 22 27 27 37 44 27 28 23 22 23 23 21 21 22 26
34 22 27 30 25 15 14 10 15 13 14 13 12 12 11 9 9 8 7 9 6 6 6 5 7 10 17 27 20 28 26 25 22 24 34 31 28 21 24 24 23 21 20 23 27
28 18 25 26 17 14 12 12 27 14 14 14 12 12 11 10 9 8 7 8 15 6 8 6 6 10 22 13 13 13 18 21 25 36 26 28 27 17 21 20 20 18 20 23 27
26 25 23 22 18 15 16 13 14 13 15 15 14 15 15 13 14 10 9 17 17 11 8 6 8 10 10 20 22 21 22 20 17 21 27 30 26 19 20 22 20 18 23 28 29
28 21 20 20 20 17 16 15 14 15 15 16 16 17 16 15 15 18 15 16 17 16 37 20 7 7 10 11 13 21 21 23 19 20 24 24 21 19 19 20 20 21 25 28 30
27 27 36 22 22 19 18 17 15 16 15 16 18 17 16 16 16 17 16 16 19 24 21 11 9 7 6 6 7 12 18 22 22 17 18 16 16 16 17 18 19 20 25 28 29
33 32 30 28 27 25 28 18 16 16 19 17 18 17 18 17 20 18 16 17 17 16 17 12 11 11 11 7 6 7 8 10 12 16 16 15 15 11 15 16 16 18 25 26 25
42 42 35 41 24 24 20 20 19 20 21 20 18 18 18 23 21 18 16 15 15 18 16 15 12 15 13 9 9 9 8 8 9 12 16 17 13 11 16 19 16 16 21 25 21

GFSSW_925_rhum_339.txt.gz
RH
44 43 41 38 36 34 32 31 27 23 18 13 11 8 8 10 10 23 13 12 21 32 57 47 40 38 38 32 27 22 36 26 25 25 27 22 26 23 20 24 25 26 28 34 50
42 40 39 37 35 32 30 30 26 23 18 15 11 8 11 16 29 13 12 11 15 36 44 35 33 32 30 25 22 29 25 21 18 20 23 22 24 25 25 28 31 34 34 37 43
39 36 34 32 30 28 26 26 25 22 19 16 12 9 16 16 18 9 12 8 22 34 31 30 27 28 28 22 20 34 23 17 18 18 18 21 23 22 23 27 27 33 35 34 35
33 29 25 24 23 21 20 22 22 22 19 16 13 10 18 39 16 28 9 7 32 44 28 28 28 30 27 32 18 33 17 17 17 20 19 21 21 22 26 23 23 26 28 29 29
26 23 22 20 19 16 15 16 19 19 17 16 12 14 28 12 9 29 9 19 49 45 27 28 30 27 27 24 21 23 20 18 18 19 20 20 21 23 24 20 22 25 27 27 27
29 23 20 19 17 13 12 15 17 17 17 16 11 17 27 9 15 44 46 57 39 32 26 26 23 20 22 22 23 20 19 19 19 20 20 21 21 21 22 21 24 26 27 26 27
30 24 20 18 13 11 9 12 15 16 15 13 10 33 14 7 12 33 38 40 27 26 22 24 24 22 19 22 20 19 23 20 20 21 22 20 25 24 21 22 25 26 26 27 28
25 21 18 17 14 10 9 11 15 15 13 11 12 37 9 7 14 24 31 29 23 24 24 24 26 22 20 19 21 24 24 34 25 22 23 30 69 22 20 22 25 25 26 27 30
25 21 16 14 13 10 8 16 26 18 12 12 31 24 6 7 13 21 27 22 22 25 25 23 21 21 20 24 29 25 71 69 76 23 24 26 81 34 20 22 24 24 26 28 33
24 21 20 13 12 8 12 33 29 38 34 36 25 13 7 4 6 21 24 20 21 23 24 22 22 23 21 24 62 74 32 34 32 55 25 26 30 43 22 24 25 27 29 30 30
23 21 20 14 12 9 28 41 28 24 21 11 9 8 4 3 6 19 22 19 20 22 26 20 23 26 22 22 26 23 25 32 30 27 28 31 31 39 75 53 27 25 29 30 30
22 20 22 15 10 14 32 22 14 14 14 10 9 7 6 6 7 13 20 21 22 24 20 18 22 27 38 23 21 22 29 45 24 32 32 28 28 26 35 29 29 25 29 26 28
22 23 24 17 12 25 25 14 14 14 12 9 8 9 8 7 4 9 18 19 22 22 18 18 16 21 34 22 23 35 34 51 26 30 28 29 34 29 22 22 23 27 23 22 25
22 25 28 15 35 16 16 16 15 14 14 11 10 8 7 6 6 4 15 17 16 19 15 15 13 22 30 22 26 29 29 21 26 31 44 30 40 37 28 23 23 21 28 22 26
23 32 34 24 44 14 14 15 14 13 18 9 8 7 7 7 5 5 11 13 16 15 14 15 13 18 24 17 20 30 45 23 22 27 29 34 42 46 26 25 22 22 21 21 23
22 37 32 32 37 17 16 15 14 16 16 10 9 11 9 8 5 5 9 11 10 14 13 12 10 13 15 14 22 22 22 22 23 29 46 67 32 46 47 19 19 19 19 19 22
21 32 32 38 14 13 16 13 15 16 10 11 10 9 10 9 6 6 8 14 16 18 18 14 15 13 15 20 20 22 22 34 58 84 94 68 24 26 17 17 15 17 19 18 22
26 28 36 29 20 17 16 15 19 9 9 8 8 8 10 8 7 7 8 10 11 9 12 17 17 14 16 18 21 21 20 62 56 34 65 57 29 25 17 16 15 15 17 18 20
30 34 28 23 22 19 15 16 11 10 8 8 8 9 9 8 6 6 7 7 7 7 10 12 14 9 13 15 15 21 22 20 29 17 26 60 48 21 17 17 16 15 16 18 20
44 19 18 19 19 17 17 17 8 10 10 9 10 8 10 8 8 6 7 5 5 6 6 8 10 9 12 14 15 16 20 26 33 38 49 47 48 86 22 20 17 16 16 17 19
38 17 19 18 15 13 15 10 7 9 10 10 10 10 8 8 8 7 6 5 4 4 5 6 7 8 9 16 18 19 21 18 25 20 30 26 57 61 26 18 18 15 15 16 18
19 14 19 15 15 12 12 9 32 9 10 10 10 10 10 8 8 8 7 6 5 4 5 5 6 7 6 8 12 12 14 13 19 24 51 37 30 29 15 16 16 15 16 15 19
19 13 17 16 16 12 10 10 9 8 10 10 10 10 9 10 10 7 6 10 7 6 6 5 6 7 6 8 11 13 10 10 11 39 85 92 34 22 15 17 16 15 16 18 19
20 15 14 14 12 14 12 11 10 9 10 11 12 11 12 12 10 10 8 12 10 7 40 14 6 6 7 8 10 17 14 11 13 22 28 46 26 50 17 17 16 15 18 19 22
18 16 23 16 12 12 10 11 11 11 10 10 13 12 12 13 11 12 11 12 12 27 15 8 8 6 5 5 5 7 12 12 16 17 22 19 18 14 16 16 15 16 19 20 23
24 25 21 16 16 20 20 14 12 9 12 12 12 11 12 15 14 13 11 12 13 12 11 7 9 7 8 5 5 6 6 11 12 15 16 14 14 10 10 14 16 16 19 21 21
27 24 22 20 16 14 13 13 11 11 13 13 14 12 13 14 16 14 11 11 12 13 11 10 8 9 11 8 7 8 6 6 8 12 15 15 12 11 13 15 16 16 18 19 18

GFSSW_925_rhum_342.txt.gz
RH
41 40 37 36 34 33 31 27 24 22 20 19 14 10 7 9 9 19 14 13 16 27 50 41 43 36 33 32 40 58 34 30 27 24 24 20 23 20 18 23 28 31 43 46 50
38 36 33 30 29 28 26 25 22 20 19 19 15 11 8 16 22 13 13 14 13 28 46 36 33 29 31 31 55 56 43 28 19 18 20 20 22 22 23 26 31 33 36 46 50
33 28 25 23 21 20 19 20 21 19 19 18 16 12 10 18 24 9 10 12 8 23 30 28 26 30 67 48 32 36 21 15 18 17 17 20 20 19 22 27 28 33 31 34 51
34 28 25 26 22 15 14 15 17 18 18 16 16 11 14 37 19 23 15 10 8 33 33 24 25 44 64 43 24 28 15 15 16 16 17 20 18 22 24 24 22 25 25 29 34
34 28 25 22 18 15 12 13 15 16 17 16 16 11 24 18 9 20 10 8 25 45 33 24 28 33 40 24 22 25 20 16 16 17 18 18 20 21 22 21 22 23 23 26 28
29 26 24 20 14 12 10 10 12 15 16 16 16 11 33 13 20 16 21 36 37 38 28 22 36 28 26 23 33 29 21 17 17 18 18 19 20 20 20 20 23 23 24 24 26
27 24 21 18 12 10 9 8 11 14 14 15 14 30 19 8 15 27 28 34 29 30 23 21 24 20 21 24 23 22 27 19 22 20 20 19 23 26 20 20 22 24 26 27 28
27 23 21 19 12 9 8 8 12 16 14 13 11 39 14 6 7 23 25 27 25 24 24 25 22 21 27 19 19 28 51 60 44 45 24 23 39 32 20 21 23 25 28 27 35
24 21 20 22 14 9 8 10 22 19 14 12 22 28 11 6 7 11 21 22 22 20 20 28 20 28 44 29 31 41 60 64 73 46 50 37 43 29 29 26 23 25 25 26 31
23 19 16 16 15 10 8 26 31 22 17 32 27 20 10 5 4 7 17 20 18 18 21 22 20 29 39 35 39 68 55 54 60 61 50 42 39 33 32 41 46 41 24 28 30
23 20 17 16 17 11 10 39 27 25 22 12 10 11 5 5 3 8 17 19 16 20 26 20 24 24 24 27 25 32 36 35 39 33 34 31 39 33 34 38 38 49 43 29 31
25 20 16 15 18 11 26 26 14 12 16 14 9 8 5 3 3 10 18 20 20 24 21 21 22 19 23 22 26 26 33 36 26 36 32 30 33 44 43 30 28 34 58 32 32
24 20 15 16 15 20 23 19 13 12 13 10 10 8 6 4 4 7 16 18 20 22 20 20 22 21 23 28 26 28 29 35 32 27 27 27 30 47 48 33 27 29 37 40 41
24 22 17 17 32 19 15 15 13 11 14 9 10 8 7 6 7 4 12 17 19 21 18 17 25 52 26 28 30 33 25 26 30 27 34 25 39 32 38 45 33 31 27 46 56
22 22 23 29 46 17 12 12 12 10 23 7 8 6 6 7 5 4 6 15 20 18 16 16 14 16 21 19 17 27 24 28 22 29 33 74 68 64 51 31 23 27 26 29 28
21 24 28 34 42 12 14 12 11 16 18 9 8 8 8 7 7 4 4 11 13 15 13 14 10 10 15 15 18 28 42 41 43 53 58 70 74 76 57 51 39 20 24 37 60
19 27 36 41 17 10 10 11 16 18 8 10 10 9 8 9 8 5 5 9 18 19 18 14 12 12 12 14 16 24 42 58 75 60 77 49 54 55 44 29 32 21 28 30 35
16 24 32 25 18 16 12 15 22 10 10 7 8 8 10 8 8 5 6 9 12 13 14 17 16 13 16 12 22 23 18 31 52 53 58 62 68 74 55 27 12 15 17 24 24
16 26 30 22 21 14 14 19 16 12 8 7 7 8 9 7 7 6 6 7 8 10 15 13 13 10 14 12 13 18 29 26 30 28 32 66 53 59 40 25 13 14 16 21 21
53 23 17 16 16 14 17 20 10 7 9 8 10 7 9 8 8 7 7 6 7 7 8 9 12 12 14 14 12 13 21 46 34 40 44 61 77 87 60 32 15 16 17 18 19
43 20 14 13 14 13 18 14 10 7 8 10 9 9 8 8 8 8 6 5 5 5 7 6 7 8 9 14 13 16 22 23 19 23 31 50 87 44 47 33 24 15 15 16 20
21 19 15 13 15 13 15 12 13 7 7 8 8 10 10 7 8 8 7 5 4 4 5 5 6 9 8 7 9 10 13 13 17 19 30 33 40 69 48 27 23 13 14 17 21
27 14 15 13 15 12 10 9 8 8 8 9 8 8 8 10 11 8 7 5 4 4 5 5 7 8 8 6 5 9 11 11 11 17 48 38 42 48 38 28 16 14 14 22 24
27 14 13 15 13 11 12 11 10 8 8 7 9 8 9 11 10 10 7 9 6 5 26 10 6 6 8 7 5 8 10 11 11 13 47 37 72 60 51 44 19 14 18 19 21
29 13 18 19 14 12 10 12 12 10 8 7 10 11 11 13 11 10 9 10 10 24 9 6 8 7 5 5 4 5 8 12 13 11 25 40 56 70 55 47 27 16 18 20 21
22 25 20 21 17 15 16 14 11 10 9 10 10 10 10 12 11 16 11 10 11 10 10 7 10 8 8 6 5 5 5 6 9 10 11 21 37 34 40 53 15 17 20 22 22
25 24 22 20 13 12 13 13 11 11 9 8 11 14 10 15 15 14 12 10 9 10 11 9 9 9 11 7 7 8 6 5 6 9 9 15 31 49 34 14 15 16 19 21 21

GFSSW_925_rhum_345.txt.gz
RH
36 33 30 27 26 26 25 24 23 22 18 16 15 13 11 7 6 17 25 10 13 27 33 46 49 46 84 86 72 72 79 38 30 30 28 22 24 21 28 45 48 46 52 57 64
31 24 21 20 19 18 19 19 20 20 19 17 16 14 11 12 16 24 6 12 14 20 40 41 47 60 86 90 83 71 55 31 21 23 24 22 23 24 33 48 57 55 50 59 68
30 26 21 19 18 14 14 15 17 17 18 17 16 16 11 16 43 12 10 9 14 13 27 36 63 71 75 66 60 41 40 22 20 18 20 22 23 21 32 42 59 62 55 49 64
30 29 23 17 13 13 12 12 14 15 17 17 16 16 11 24 22 21 14 9 13 10 34 32 48 62 72 51 36 41 19 17 18 18 20 20 21 25 30 33 32 47 49 50 52
28 24 20 16 12 10 9 10 10 12 15 16 16 16 16 36 18 9 14 13 10 28 38 35 46 63 66 55 31 36 28 17 18 18 20 18 24 26 28 27 27 33 49 53 51
27 24 19 17 13 10 8 8 8 11 13 15 16 15 39 21 7 11 12 10 28 40 37 33 40 50 45 40 38 28 29 25 32 34 18 22 24 24 27 26 27 27 32 47 49
25 23 19 16 14 10 8 8 8 10 12 15 16 24 34 22 17 18 15 16 32 37 35 32 29 39 32 48 37 28 31 28 38 36 31 35 33 29 26 26 27 28 30 33 49
26 22 19 15 12 11 9 8 8 11 15 16 15 45 38 6 4 19 23 30 32 29 29 30 28 41 45 48 36 41 53 54 37 38 37 39 42 32 30 27 30 30 30 34 37
29 22 19 15 12 12 9 8 13 22 18 16 20 45 25 6 7 7 22 24 26 24 25 22 25 32 37 42 48 52 66 60 52 37 42 43 52 36 34 36 37 33 38 45 43
27 22 19 16 14 13 9 16 30 21 19 30 31 30 21 11 6 7 14 22 23 23 24 28 37 34 38 47 62 63 58 48 56 43 43 43 51 36 32 42 44 40 46 41 43
25 20 16 15 15 21 10 32 38 40 32 25 20 25 13 8 5 6 7 20 22 23 32 30 35 38 31 43 44 38 48 54 48 39 43 45 48 43 36 41 42 48 56 60 46
24 20 16 14 16 22 24 40 26 14 23 24 14 18 14 9 7 4 4 21 26 31 26 28 33 26 28 32 31 42 46 55 44 36 46 48 46 42 38 50 42 41 54 58 54
25 21 17 13 16 19 20 18 12 18 18 14 20 15 10 9 6 4 6 20 27 29 26 30 28 25 30 36 30 30 41 48 46 38 61 72 80 56 61 62 46 40 50 41 51
26 23 20 14 30 29 26 10 14 15 25 17 15 14 10 6 7 3 10 21 25 28 24 24 25 31 38 39 42 37 32 33 33 39 53 66 89 79 81 80 62 38 50 52 60
26 23 20 32 33 32 16 13 12 12 34 11 13 8 8 9 7 7 4 18 25 24 24 25 30 37 38 30 30 33 25 30 42 46 51 64 66 79 83 77 61 54 34 48 45
25 23 22 43 54 8 8 12 12 25 28 11 11 11 10 9 8 7 6 6 17 22 21 21 15 29 36 28 33 26 31 49 66 71 73 75 67 68 64 54 50 48 38 43 40
23 20 34 36 34 18 14 12 25 30 12 12 12 10 10 11 10 9 8 7 22 29 29 22 19 14 14 29 32 30 41 66 75 84 83 74 59 62 54 52 52 49 51 38 37
20 15 14 14 11 19 19 21 33 17 14 8 10 10 11 10 10 9 8 7 14 19 25 28 26 16 12 22 36 42 58 59 64 66 71 65 72 62 49 46 50 40 43 38 39
19 29 27 13 16 22 26 31 27 19 10 10 10 13 12 10 10 10 10 8 7 13 21 24 20 12 18 19 26 43 47 32 35 39 57 74 69 57 48 52 49 43 41 39 38
39 38 24 22 18 20 28 30 19 12 11 10 13 9 13 11 11 11 10 7 7 8 13 16 20 13 24 16 20 23 20 40 70 74 77 91 84 78 52 44 39 54 32 34 33
52 36 19 20 17 25 29 23 16 11 10 9 13 13 12 12 10 10 10 8 6 7 9 12 13 14 19 28 38 22 36 36 74 77 76 78 84 64 50 45 44 50 41 30 36
39 34 14 12 27 26 22 17 16 12 10 8 9 12 12 12 14 11 10 9 6 6 8 10 13 15 11 10 15 15 24 34 41 39 39 46 74 46 52 43 46 38 40 31 31
52 32 14 12 27 20 17 14 12 11 10 9 10 9 9 12 16 16 11 7 6 6 7 8 12 13 12 9 17 17 16 16 17 24 43 41 53 48 54 41 45 42 31 28 29
51 35 24 22 20 20 19 17 15 9 9 9 11 11 13 16 13 16 14 8 6 11 18 12 8 11 13 14 11 11 12 13 15 22 54 41 44 49 46 59 43 44 29 28 33
48 32 27 32 25 22 18 17 16 14 11 9 10 11 15 20 19 17 14 11 10 19 8 8 10 9 10 9 7 7 7 8 16 18 39 47 56 46 35 52 53 57 38 30 34
46 39 33 31 19 18 19 19 17 14 13 13 14 10 12 17 25 27 21 20 16 12 10 9 15 11 14 11 9 8 7 6 9 13 37 43 44 39 38 46 55 40 44 31 33
42 32 38 33 24 20 18 16 14 15 16 12 16 16 18 22 19 18 17 16 14 15 15 13 16 17 18 13 12 13 10 8 8 8 35 45 46 48 44 33 39 36 51 30 29